Tracking 21473 objects as of 18-Sep-2020
HD Live streaming from Space Station
objects crossing your sky now

COSMOS 1711 (GLONASS)

Track COSMOS 1711 (GLONASS) now!
COSMOS 1711 (GLONASS) is classified as:


NORAD ID: 16397
Int'l Code: 1985-118B
Perigee: 19,113.3 km
Apogee: 19,160.9 km
Inclination: 66.2 °
Period: 675.7 minutes
Semi major axis: 25508 km
RCS: 0.7803 m2 (medium)
Launch date: December 24, 1985
Source: Commonwealth of Independent States (former USSR) (CIS)
Launch site: TYURATAM MISSILE AND SPACE COMPLEX (TTMTR)
aabbcc
Your satellite tracking list
Your tracking list is empty




NASA's NSSDC Master Catalog

Two Line Element Set (TLE):
1 16397U 85118B   20261.44463164 -.00000040 +00000-0 +00000-0 0  9997
2 16397 066.2358 033.4593 0009330 192.1886 224.6182 02.13101423270039
Source of the keplerian elements: AFSPC